Weather in Latina

Italy     41°28′08″N   12°53′54″E
temp.,
°C
wind,
m/s
gust,
m/s
humid.,
%
clouds,
%
prec.,
mm/h
press.,
hPa
HPBL,
m
13 june, sun
sun1323:00+19n2174100 0.0 101813
02:00+18ne1172100 0.0 101812
05:00+17ene227785 0.0 101715
08:00+22ene116311 0.0 1018178
11:00+27wsw23453 0.0 10181070
14:00+29wsw54435 0.0 10181265
17:00+27wsw33435 0.0 1017791
20:00+22w23650 0.0 101863
14 june, mon
mon1423:00+19nnw22650 0.0 101820
02:00+19nne11650 0.0 101813
05:00+18ne11670 0.0 101712
08:00+23ese11565 0.0 1017204
11:00+27ssw32480 0.0 1017969
14:00+28ssw43485 0.0 10161325
17:00+27ssw32552 0.0 1015846
20:00+23wsw117344 0.3 101540
15 june, tue
tue1523:00+20ne11822 0.0 101611
02:00+21ese118110 0.0 101638
05:00+19ne21880 0.0 101618
08:00+23wnw01697 0.0 1017389
11:00+27sw225147 0.0 10171449
14:00+25ssw435236 0.1 1017951
17:00+25sw224216 0.1 1017777
20:00+22wsw12585 0.1 101761
16 june, wed
wed1623:00+19n22675 0.0 101724
02:00+19nne116921 0.0 101714
05:00+18ene11735 0.0 101713
08:00+22sse11604 0.0 1017244
11:00+26sw32505 0.0 10171186
14:00+28sw534777 0.0 10161271
17:00+26sw3253100 0.0 1017912
20:00+22wsw116595 0.0 101769
17 june, thu
thu1723:00+19n117098 0.0 101722
02:00+19ene1172100 0.0 101611
05:00+19ne1174100 0.1 101711
08:00+22n016097 0.1 1017262
11:00+27sw114375 0.0 10171015
14:00+28ssw4343100 0.0 10161366
17:00+26ssw224550 0.0 1017763
20:00+22wsw1163100 0.0 101746